Flag for U.S.A. Weather past 2 weeks in Sitka, Alaska, U.S.A.

Now
47 °F

Mostly cloudy.


Feels Like: 42 °F
Forecast: 40 / 48 °F
Wind: 12 mph from Southeast

Location: Sitka Airport


UV Index: 0 (Low)

Visibility: 10 mi


Pressure: 29.76 "Hg

Humidity: 66%

Dew point: 36 °F

Location of SitkaLocation

Historic Weather in Sitka

°F

Sitka temperature yesterday

Maximum temperature yesterday: 52 °F (at 3:53 PM)
Minimum temperature yesterday: 46 °F (at 12:53 AM)
Average temperature yesterday: 49 °F

Past Weeks' High & Low Weather Summary

 TemperatureHumidityPressure
High52 °F (Apr 16, 2:53 PM)100% (Apr 9, 11:52 PM)30.35 "Hg (Apr 9, 11:52 PM)
Low31 °F (Apr 12, 5:53 AM)39% (Apr 11, 4:53 PM)29.23 "Hg (Apr 7, 9:53 AM)
Average43 °F75%29.77 "Hg
* Reported Apr 5 7:53 PM — Apr 20 7:53 PM, Sitka, Weather by CustomWeather, © 2014

Note: Actual official high and low records may vary slightly from our data, if they occured in-between our weather recording intervals... More about our weather records

Advertising

Historic Weather Conditions — Data for Previous 24 hours

 ConditionsComfort  
Time TempWeatherWind HumidityBarometerVisibility
7:53 PM
Apr 20
47 °FMostly cloudy.12 mph66%29.75 "Hg10 mi
6:53 PM48 °FBroken clouds.15 mph63%29.73 "Hg10 mi
5:53 PM50 °FMore clouds than sun.10 mph54%29.72 "Hg10 mi
4:53 PM50 °FMore clouds than sun.17 mph54%29.73 "Hg10 mi
3:53 PM49 °FOvercast.14 mph61%29.74 "Hg10 mi
2:53 PM51 °FPartly sunny.15 mph52%29.74 "Hg10 mi
1:53 PM51 °FPartly sunny.17 mph52%29.75 "Hg10 mi
12:53 PM52 °FBroken clouds.15 mph50%29.74 "Hg10 mi
11:53 AM51 °FMostly cloudy.12 mph52%29.76 "Hg10 mi
10:53 AM49 °FPartly sunny.17 mph55%29.76 "Hg10 mi
9:53 AM47 °FBroken clouds.16 mph64%29.76 "Hg10 mi
8:53 AM45 °FOvercast.13 mph74%29.77 "Hg10 mi
7:53 AM44 °FMostly cloudy.10 mph76%29.74 "Hg10 mi
6:53 AM44 °FMore clouds than sun.13 mph73%29.72 "Hg10 mi
5:53 AM44 °FLight rain. Mostly cloudy.15 mph79%29.68 "Hg9 mi
4:53 AM44 °FLight rain. Mostly cloudy.14 mph79%29.64 "Hg10 mi
3:53 AM44 °FLight rain. Mostly cloudy.12 mph82%29.59 "Hg9 mi
2:53 AM45 °FOvercast.8 mph80%29.55 "Hg9 mi
1:53 AM45 °FOvercast.20 mph80%29.49 "Hg10 mi
12:53 AM48 °FMostly cloudy.17 mph66%29.43 "Hg10 mi
11:53 PM
Apr 19
48 °FOvercast.12 mph66%29.37 "Hg10 mi
10:53 PM48 °FLight rain. Partly cloudy.10 mph66%29.34 "Hg10 mi
9:53 PM48 °FPassing clouds.13 mph63%29.32 "Hg10 mi
Weather by CustomWeather, © 2014

See weather overview